Find Starlink 34898

NORAD ID: 65895 Int'l Des: 2025-224 Owner: SPXS Country: US Constellation: starlink operational
LEOCIRCULAR

Aktuelle Ansicht

3D-Globus wird geladen...

Über Starlink 34898

Beschreibung wird geladen...

Nächste Überflüge

Passes for default location (London). Set your location on the main map for personalized predictions.

Höhenverlauf

Loading altitude history...

Zweizeiliger Elementsatz

1 65895U 25224P 26151.53449839 .00049026 00000-0 14514-2 0 9996
2 65895 53.1605 345.4463 0001173 92.7172 267.3965 15.34428617 37575
Epoch: 31. Mai 2026 • Age: 5 hours

Aktueller Status

Höhe 462.7 km
Geschwindigkeit 7.64 km/s
Subsatellitenpunkt 7.32°N, 162.57°W
Startdatum 7. Okt. 2025
Alter 0.6 years
Typ internet

Technische Details

Klassifizierung Payload
Masse 575.00 kg
Trockenmasse 530.00 kg
Gesamtmasse 575.00 kg
Länge 0.30 m
Durchmesser 4.10 m
Spannweite 29.00 m
Form Box + pan
Hersteller SPXS
Bus-Typ Starlink V2MO
Phasenstatus In Orbit
Besitzer/Staat SPXS/US

Most Searched